Flag for South Korea Weather past 2 weeks in Seoul, South Korea

Now
39 °F

Light rain. Fog.


Feels Like: 35 °F
Forecast: 32 / 47 °F
Wind: 6 mph from East

Location: Seoul / Kimp'O International Airport

Current Time: Jan 25, 2015 at 7:58:06 PM

Latest Report: Jan 25, 2015 at 7:00 PM


Visibility: 2 mi

Pressure: 30.15 "Hg

Humidity: 75%

Dew point: 32 °F

Location of SeoulLocation

Historic Weather in Seoul — Graph

°F

Seoul temperature yesterday

Maximum temperature yesterday: 45 °F (at 12:00 PM)
Minimum temperature yesterday: 30 °F (at 2:00 AM)
Average temperature yesterday: 36 °F

Past Weeks' High & Low Weather Summary

 TemperatureHumidityPressure
High46 °F (Jan 15, 3:00 PM)87% (Jan 16, 4:00 AM)30.63 "Hg (Jan 16, 4:00 AM)
Low16 °F (Jan 12, 5:00 AM)13% (Jan 12, 2:00 PM)30.01 "Hg (Jan 18, 6:55 PM)
Average31 °F55%30.27 "Hg
* Reported Jan 10 6:00 PM — Jan 25 6:00 PM, Seoul, Weather by CustomWeather, © 2014

Note: Actual official high and low records may vary slightly from our data, if they occured in-between our weather recording intervals... More about our weather records

Advertising

Seoul weather history for previous 24 hours

 ConditionsComfort  
Time TempWeatherWind HumidityBarometerVisibility
6:00 PM
Jan 25
39 °FLight rain. Fog.5 mph75%30.15 "Hg2 mi
5:00 PM39 °FLight rain. Fog.5 mph70%30.15 "Hg2 mi
4:00 PM39 °FLight rain. Fog.10 mph70%30.15 "Hg2 mi
3:00 PM39 °FLight rain. Fog.7 mph65%30.18 "Hg2 mi
2:00 PM41 °FLight rain. Mostly cloudy.6 mph57%30.18 "Hg2 mi
1:00 PM41 °FMostly cloudy.8 mph45%30.21 "Hg2 mi
12:00 PM41 °FMore clouds than sun.9 mph45%30.27 "Hg2 mi
11:00 AM39 °FMore clouds than sun.12 mph52%30.27 "Hg2 mi
10:47 AM39 °FFog.12 mph56%30.27 "Hg2 mi
10:00 AM34 °FFog.3 mph81%30.30 "Hg2 mi
9:00 AM32 °FIce fog.6 mph80%30.30 "Hg2 mi
8:00 AM30 °FIce fog.2 mph80%30.30 "Hg2 mi
7:00 AM28 °FIce fog.1 mph80%30.30 "Hg2 mi
6:00 AM28 °FIce fog.1 mph86%30.30 "Hg1 mi
5:00 AM30 °FIce fog.5 mph80%30.30 "Hg1 mi
4:00 AM30 °FIce fog.3 mph80%30.33 "Hg1 mi
3:00 AM30 °FIce fog.3 mph80%30.36 "Hg1 mi
2:00 AM32 °FIce fog.3 mph75%30.33 "Hg2 mi
1:00 AM32 °FIce fog.3 mph75%30.36 "Hg2 mi
12:00 AM30 °FIce fog.2 mph80%30.36 "Hg2 mi
11:00 PM
Jan 24
32 °FIce fog.2 mph80%30.33 "Hg2 mi
10:00 PM32 °FPassing clouds.3 mph69%30.33 "Hg2 mi
9:00 PM32 °FPassing clouds.2 mph75%30.33 "Hg2 mi
8:00 PM34 °FPassing clouds.1 mph70%30.33 "Hg3 mi
7:00 PM36 °FPassing clouds.3 mph56%30.33 "Hg4 mi
Weather by CustomWeather, © 2014

See weather overviewHow to use our weather pages